• Join FlightAware (Why Join?)
  • Login
  • US Flag 
 
12:03PM EST


 

Airport Tracker/Info


-or-


 

Live Flight TrackerFlight Track Log ✈ EJA929 ✈ 31-Oct-2013 ✈ KCMH - KAGS

Flight Track Log - Related Links

Times and Time Zones

All times are in EDT time to prevent confusion due to time zone crossing. See the EJA929 flight status page for this flight to view local times or setup timezone preferences in your user account.

Time Position Orientation Groundspeed Altitude Reporting Facility
EDT Latitude Longitude Course Direction KTS MPH feet Rate Location/Type
11:45AM 40.0022 -82.9100 280° West 176 203 1,200  Level Indianapolis Center
11:46AM 40.0069 -82.9456 280° West 193 222 3,400 3,360 Climbing Indianapolis Center
11:46AM 40.0083 -82.9983 272° West 213 245 5,300 2,700 Climbing Indianapolis Center
11:47AM 40.0033 -83.0197 253° West 226 260 6,200 3,000 Climbing Indianapolis Center
11:48AM 39.9756 -83.0967 245° Southwest 248 285 9,600 2,760 Climbing Indianapolis Center
11:49AM 39.9014 -83.0650 162° South 305 351 11,900 2,580 Climbing Indianapolis Center
11:50AM 39.8014 -83.0289 164° South 310 357 14,900 2,400 Climbing Indianapolis Center
11:51AM 39.7133 -83.0072 169° South 318 366 16,900 1,860 Climbing Indianapolis Center
11:52AM 39.6208 -82.9853 170° South 332 382 18,800 1,620 Climbing Indianapolis Center
11:53AM 39.5203 -82.9594 169° South 360 414 20,300 1,440 Climbing Indianapolis Center
11:54AM 39.4181 -82.9347 169° South 370 426 21,800 1,440 Climbing Indianapolis Center
11:55AM 39.3153 -82.9100 169° South 373 429 23,300 1,320 Climbing Indianapolis Center
11:56AM 39.2128 -82.8833 169° South 375 432 24,600 1,200 Climbing Indianapolis Center
11:57AM 39.1047 -82.8575 169° South 379 436 25,800 840 Climbing Indianapolis Center
11:58AM 38.9956 -82.8311 169° South 395 455 26,400 660 Climbing Indianapolis Center
11:59AM 38.8819 -82.8033 169° South 410 472 27,200 1,080 Climbing Indianapolis Center
12:00PM 38.7431 -82.7708 170° South 420 483 28,700 1,380 Climbing Indianapolis Center
12:01PM 38.6367 -82.7436 169° South 415 478 30,100 1,080 Climbing Indianapolis Center
12:02PM 38.5239 -82.7189 170° South 410 472 31,000 780 Climbing Indianapolis Center
12:03PM 38.4064 -82.6911 170° South 423 487 31,800 840 Climbing Indianapolis Center
12:04PM 38.2878 -82.6525 166° South 436 502 32,800 900 Climbing Indianapolis Center
12:05PM 38.1494 -82.5928 161° South 447 514 33,700 1,140 Climbing Indianapolis Center
12:06PM 38.0308 -82.5439 162° South 446 513 35,200 1,380 Climbing Indianapolis Center
12:07PM 37.9119 -82.5203 171° South 434 499 36,600 1,080 Climbing Indianapolis Center
12:08PM 37.7925 -82.4942 170° South 432 497 37,500 720 Climbing Indianapolis Center
12:09PM 37.6672 -82.4672 170° South 448 516 38,100 720 Climbing Indianapolis Center
12:10PM 37.5369 -82.4400 171° South 468 539 39,000 900 Climbing Indianapolis Center
12:11PM 37.4022 -82.4122 171° South 483 556 40,000 480 Climbing Indianapolis Center
12:12PM 37.2633 -82.3817 170° South 496 571 40,000 480 Level Indianapolis Center
12:13PM 37.1047 -82.3481 170° South 493 567 41,000 480 Climbing Indianapolis Center
12:14PM 36.9728 -82.3206 171° South 478 550 41,000  Level Indianapolis Center
12:15PM 36.8381 -82.2928 171° South 482 555 41,000  Level Indianapolis Center
12:16PM 36.7028 -82.2650 171° South 486 559 41,000  Level Indianapolis Center
12:17PM 36.5853 -82.2419 171° South 488 562 41,000  Level Atlanta Center
12:18PM 36.4472 -82.2114 170° South 488 562 41,000 -540 Level Atlanta Center
12:19PM 36.3133 -82.1836 171° South 501 577 40,000 -1,500 Descending Atlanta Center
12:20PM 36.1689 -82.1561 171° South 506 582 38,100 -2,040 Descending Atlanta Center
12:21PM 36.0247 -82.1261 170° South 523 602 36,000 -2,100 Descending Atlanta Center
12:22PM 35.8822 -82.0961 170° South 523 602 34,000 -2,040 Descending Atlanta Center
12:23PM 35.7400 -82.0686 171° South 523 602 32,000 -2,040 Descending Atlanta Center
12:24PM 35.5997 -82.0414 171° South 523 602 30,000 -2,160 Descending Atlanta Center
12:25PM 35.4469 -82.0069 170° South 523 602 27,700 -2,160 Descending Atlanta Center
12:26PM 35.3131 -81.9822 171° South 507 583 25,700 -1,860 Descending Atlanta Center
12:27PM 35.1894 -81.9650 174° South 482 555 24,000 -900 Descending Atlanta Center
12:28PM 35.0639 -81.9325 168° South 465 535 24,000 -540 Level Atlanta Center
12:29PM 34.9431 -81.9533 188° South 435 501 23,000 -1,200 Descending Atlanta Center
12:30PM 34.8228 -81.9894 194° South 440 506 21,600 -1,440 Descending Atlanta Center
12:31PM 34.7044 -82.0225 193° South 445 512 20,200 -1,680 Descending Atlanta Center
12:32PM 34.5853 -82.0203 179° South 445 512 18,300 -1,860 Descending Atlanta Center
12:33PM 34.4642 -82.0156 178° South 439 505 16,500 -1,920 Descending Atlanta Center
12:34PM 34.3494 -82.0108 178° South 434 499 14,500 -2,040 Descending Atlanta Center
12:35PM 34.2408 -82.0033 177° South 416 479 12,500 -1,800 Descending Atlanta Center
12:36PM 34.1383 -82.0008 179° South 393 452 11,000 -780 Descending Atlanta Center
12:37PM 34.0444 -81.9956 177° South 361 415 11,000  Level Atlanta Center
12:38PM 33.9442 -81.9906 178° South 356 410 11,000  Level Atlanta Center
12:39PM 33.8397 -81.9856 178° South 362 417 11,000 -780 Level Atlanta Center
12:40PM 33.7561 -81.9825 178° South 346 398 9,500 -1,920 Descending Atlanta Center
12:41PM 33.6831 -81.9792 178° South 301 346 7,200 -2,220 Descending Atlanta Center
12:42PM 33.6142 -81.9758 178° South 271 312 5,100 -2,040 Descending Atlanta Center
12:43PM 33.5431 -81.9725 178° South 265 305 3,200 -1,200 Descending Atlanta Center
12:44PM 33.4828 -81.9792 185° South 244 281 2,700 -900 Descending Atlanta Center
12:45PM 33.4328 -81.9853 186° South 209 241 1,500 -1,200 Descending Atlanta Center
12:47PM 33.3667 -81.9500 168° South  Level FlightAware Approximate
12:54PM 33.3699 -81.9645 168° South  Level Estimated
12:55PM 33.3699 -81.9645 168° South  Level Estimated